018  
ASUS43 KLSX 180307  
RWRMO  
 
WEATHER SUMMARY FOR MISSOURI  
NATIONAL WEATHER SERVICE SPRINGFIELD MO  
900 PM CST MON FEB 17 2020  
 
NOTE: "FAIR" INDICATES FEW OR NO CLOUDS BELOW 12,000 FEET WITH NO  
SIGNIFICANT WEATHER AND/OR S TO VISIBILITY
.  
CURRENT SKY AND/OR WEATHER CONDITIONS ARE NOT AVAILABLE FOR  
CHILLICOTHE AND FARMINGTON.  
 
MOZ001>031-035>038-043-044-053-054-180400-   
..NORTHERN AND WESTERN MISSOURI
 
 
 
CITY SKY/WX TMP DP RH WIND PRES REMARKS
 
KANSAS CTY INT CLOUDY 40 32 73 N21G30 29.95R  
KANSAS C DTWN CLEAR 42 31 64 NW16G26 29.94R  
LEE'S SUMMIT CLEAR 45 33 63 N20G29 29.93R  
ST JOSEPH CLOUDY 35 28 75 N21G33 30.01R WCI 24  
CHILLICOTHE N/A 40 36 86 NW13G23 29.94R  
KIRKSVILLE CLOUDY 45 44 97 W16 29.85R  
 

 
MOZ066>068-077>081-088>096-101>105-180400-   
..SOUTHWEST MISSOURI
 
 
 
CITY SKY/WX TMP DP RH WIND PRES REMARKS
 
SPRINGFIELD FOG 47 47 100 CALM 29.88R VSB 1  
JOPLIN FOG 46 46 100 CALM 29.90R VSB 1/4  
BRANSON CLOUDY 54 54 100 CALM 29.89R  
 

 
MOZ032>034-039>042-045>050-055>058-069>072-180400-   
..CENTRAL MISSOURI
 
 
 
CITY SKY/WX TMP DP RH WIND PRES REMARKS
 
COLUMBIA FOG 46 46 100 SW7 29.86R VSB 1/4  
JEFFERSON CITY MOCLDY 47 44 90 NW3 29.87R  
ROLLA CLOUDY 53 50 89 SW9 29.88R  
SEDALIA MOCLDY 51 48 89 W12 29.89R  
WHITEMAN AFB CLOUDY 49 44 81 NW16 29.86  
WARRENSBURG N/A N/A N/A N/A MISG N/A  
OSAGE BEACH PTCLDY 51 50 96 W3 29.89R  
 

 
MOZ051-052-059>065-180400-   
..EAST CENTRAL MISSOURI
 
 
 
CITY SKY/WX TMP DP RH WIND PRES REMARKS
 
ST LOUIS INTL CLOUDY 52 49 89 SW8 29.86R  
SPIRIT OF STL CLOUDY 46 45 96 CALM 29.85R FOG  
ST CHARLES FOG 44 42 93 NE3 29.85R VSB 1/4  
 

 
MOZ072>076-082>087-097>100-106>115-180400-   
..SOUTH CENTRAL AND SOUTHEAST MISSOURI
 
 
 
CITY SKY/WX TMP DP RH WIND PRES REMARKS
 
CAPE GIRARDEAU CLOUDY 54 49 83 S8 29.90S  
FARMINGTON CLOUDY 52 52 100 S7 29.89R FOG  
POPLAR BLUFF CLOUDY 54 50 86 S7 29.90R  
WEST PLAINS RAIN 53 52 96 CALM 29.89R VSB 1/2  
 

 
 
 
CLICK HERE TO GO TO PREVIOUS BULLETINS.

The Nexlab MO Page Main Text Page